This is the latest recevied weather packets stored in our database for station/object W0BJ. If no packets are shown the sender has not sent any weather packets the latest 10 day(s).
| Time | Temp. | Humidity | Pressure | Rain* | Wind** | Luminosity | Snow |
|---|---|---|---|---|---|---|---|
| 1778061197 | 8.89° C | 94% | 1015.4 hPa | 1.02 mm | - | - | - |
| 1778061065 | 8.89° C | 94% | 1015.4 hPa | 1.02 mm | - | - | - |
| 1778060465 | 8.89° C | 94% | 1015.5 hPa | 1.02 mm | - | - | - |
| 1778060299 | 8.89° C | 94% | 1015.5 hPa | 1.02 mm | - | - | - |
| 1778059864 | 8.89° C | 94% | 1015.8 hPa | 0.51 mm | - | - | - |
| 1778059398 | 8.89° C | 94% | 1015.9 hPa | 0.51 mm | - | - | - |
| 1778059264 | 8.89° C | 94% | 1016 hPa | 0.25 mm | - | - | - |
| 1778058663 | 8.89° C | 94% | 1015.9 hPa | 0 mm | - | - | - |
| 1778058497 | 8.89° C | 94% | 1015.7 hPa | 0 mm | - | - | - |
| 1778058065 | 8.89° C | 94% | 1015.7 hPa | 0 mm | - | - | - |
| 1778057599 | 8.33° C | 94% | 1015.8 hPa | 0 mm | - | - | - |
| 1778057465 | 8.89° C | 94% | 1015.9 hPa | 0 mm | - | - | - |
| 1778056864 | 8.33° C | 94% | 1015.7 hPa | 0 mm | - | - | - |
| 1778056698 | 8.33° C | 94% | 1015.6 hPa | 0 mm | - | - | - |
| 1778056264 | 8.33° C | 94% | 1015.6 hPa | 0 mm | - | - | - |
| 1778055797 | 8.33° C | 93% | 1015.6 hPa | 0.25 mm | - | - | - |
| 1778055663 | 8.33° C | 94% | 1015.6 hPa | 0.25 mm | - | - | - |
| 1778055063 | 8.33° C | 93% | 1015.6 hPa | 0.51 mm | - | - | - |
| 1778054899 | 8.33° C | 93% | 1015.7 hPa | 0.51 mm | - | - | - |
| 1778054464 | 8.33° C | 93% | 1015.3 hPa | 0.51 mm | - | - | - |
| 1778053998 | 8.33° C | 93% | 1015.3 hPa | 0.51 mm | - | - | - |
| 1778053864 | 8.33° C | 93% | 1015.3 hPa | 0.51 mm | - | - | - |
| 1778053748 | 8.33° C | 93% | 1015.3 hPa | 0.51 mm | - | - | - |
| 1778053147 | 8.33° C | 93% | 1015.4 hPa | 0.51 mm | - | - | - |
| 1778053097 | 8.33° C | 93% | 1015.3 hPa | 0.51 mm | - | - | - |
* Rain latest hour (hover to see other rain measurements)
** Current wind speed in m/s (hover to see current wind gust speed)